Location: Recife
(8.0585°S, 34.8848°W)
Time: 22:43:05
(UTC-03:00)

A-11 Canister half - Pass Details

Date: 21 April 2026
Orbit: 1523 x 1684 km, 47.3° (Epoch: 19 May)

Event Time Altitude Azimuth Distance (km) Brightness Sun altitude
Rises 20:59:44 0° 251° (WSW) 4,750 12.0 -55.7°
Reaches altitude 10° 21:03:57 10° 267° (W) 3,791 11.4 -56.7°
Enters shadow 21:09:08 19° 301° (WNW) 3,150 10.8 -58.0°
